Starlink 4553

operational
NORAD ID: 53577 Int'l Des: 2022-101 Owner: SPXS Country: US Constellation: starlink
LEOCIRCULAR

关于 Starlink 4553

正在加载描述...

实时位置

正在加载3D地球...

即将过境

高度历史

Altitude vs Time

uPlot chart will show altitude changes over time

两行轨道根数

1 53577U 22101BC 25306.21033663 -.00005325 00000-0 -31690-3 0 9992
2 53577 53.2151 266.1480 0001001 106.6228 253.4874 15.08820402178021
Epoch: Nov 2, 2025 • Age: 40 hours

当前状态

高度 540.7 km
速度 7.60 km/s
星下点 28.38°N, 50.12°E
发射日期 Aug 19, 2022
运行时间 3.2 years
类型 internet

技术详情

分类 Payload
质量 300.00 kg
干质量 290.00 kg
总质量 300.00 kg
长度 0.20 m
直径 2.80 m
跨度 9.00 m
形状 Box + pan
制造商 SPXS
平台类型 Starlink
阶段状态 In Orbit
所有者/国家 SPXS/US

大型星座

Loading constellations...